"Pseudo-MPEC" for P20QyNC

Created 2019 Aug 16 19:07:06 UT using Find_Orb

Click here for an explanation of pseudo-MPECs

 
 Astrometry: 
     P20QyNC  C2019 08 09:At`Kq8'g%Y2xvCo@!DGfLQa3qEs)9;#y@Okpp[4\Y0(+'L,'mX2F52
     P20QyNC  C2019 08 09.k)S?gl4DFTs70CbkWD$B$-'+33fkSi66BU#ii5xOL.shT*3XL7?F52
     P20QyNC  C2019 08 09SwSf=31pHay#dBGfWyp]-iL;s9tPm-'ty4_Ija0C?OefoveeZLT`F52
     P20QyNC  C2019 08 09h(y()c5edcdRI3v0D@Os_oh\4.p;bV]j/yrlbWKAXN//9SOhh8H$F52
     P20QyNC KC2019 08 10VtAs*$=AstrometrymW6`tR=#93RHBEUK35m%7r,nlMAQ,^DcN^7L01
     P20QyNC KC2019 08 10l*o%6=![LH;s(Rk4F8;gi!Lg?TLV[(H?w'Un(jtredacted;.l5(L01
     P20QyNC KC2019 08 10NgMheX/.35PRj/K^Wj5_y]ACW*ilf39Z!Yleg=XclickjsAo1S_FL01
     P20QyNC KC2019 08 11l8)3[`qK,]CtQ#O0p:Qv;o._B*UT]nO-^Bx4G_KjYn.2#dnr3WU`H21
     P20QyNC KC2019 08 11fcC[LhereBidWf_(Vr+$'qB^[6Vnm3$STgQ5+#WaFubWa!`rtEvUH21
     P20QyNC KC2019 08 11s9RcoV\$d6F;%+forr6Gs2/PexplanationM0jy^iP9,I,82U8C8H21
     P20QyNC ^C2019 08 12.56422804 21 30.345+15 07 29.98   ~8CHq 20.82GVNEOCP568
     P20QyNC ^C2019 08 12.56541504 21 30.420+15 07 30.98   ~8CHq 20.83GVNEOCP568
     P20QyNC ^C2019 08 12.56691104 21 30.520+15 07 32.28   ~8CHq 20.83GVNEOCP568
     P20QyNC ^C2019 08 16.63382604 25 52.060+16 06 04.88   ~8GIq 20.87GVNEOCP568
     P20QyNC ^C2019 08 16.63536304 25 52.154+16 06 06.25   ~8GIq 20.91GVNEOCP568
     P20QyNC ^C2019 08 16.63690004 25 52.245+16 06 07.57   ~8GIq 20.73GVNEOCP568

Station data:
(568) Mauna Kea  (N19.826116 W155.472200)  US/Hawaii.
(F52) Pan-STARRS 2, Haleakala  (N20.707384 W156.255910)  US/Hawaii. 1.8-m
   Ritchey-Chrétien + CCD.
(H21) Astronomical Research Observatory, Westfield  (N39.483057 W87.968270)
   US/Illinois. 0.76-m f/3.0 astrograph + CCD.
(L01) Višnjan Observatory, Tičan  (N45.290900 E13.749300)  Croatia.
   Observers K. Korlević, E. Pettarin. Measurer E. Pettarin. 1.0-m f/2.9
   reflector + CCD.

Orbital elements:  P20QyNC
   Perihelion 2019 Mar 11.904615 +/- 1.47 TT = 21:42:38 (JD 2458554.404615)
Epoch 2019 Aug 16.0 TT = JDT 2458711.5   Earth MOID: 0.5172   Ma: 0.0592
M  48.59343589 +/- 2.2              (J2000 ecliptic)          AutoNEOCP
n   0.30932440 +/- 0.012            Peri.  255.50933 +/- 2.1
a   2.16534247 +/- 0.0561           Node    42.56746 +/- 0.20
e   0.4107499 +/- 0.00542           Incl.   38.04679 +/- 0.06
P   3.19                   H 17.3   G  0.15   U  9.8  
q 1.27592811 +/- 0.0239    Q 3.05475684 +/- 0.0975
From 16 observations 2019 Aug. 9-16; mean residual 0".20
Residuals in arcseconds: 
190809 F52  .15-  .00     190810 L01  .15+  .14-    190812 568  .24+  .18-    
190809 F52  .14-  .00     190811 H21  .39-  .14+    190816 568  .02-  .00     
190809 F52  .00   .02+    190811 H21  .25-  .29+    190816 568  .00   .03+    
190809 F52  .03-  .11-    190811 H21  .54-  .29+    190816 568  .03-  .02+    
190810 L01  .32+  .04-    190812 568  .25+  .14-    
190810 L01  .35+  .01-    190812 568  .21+  .18-    

Ephemerides (geocentric):
Date (UTC) HH   RA              Dec         delta   r     elong  mag " sig PA
---- -- -- --  -------------   -----------  ------ ------ -----  --- ---- ---
2019 08 16 19  04 26 01.684   +16 08 21.77  1.8436 1.8773  76.0 21.4 .113 179
2019 08 16 20  04 26 04.259   +16 08 57.79  1.8433 1.8775  76.1 21.4 .119 177
2019 08 16 21  04 26 06.833   +16 09 33.81  1.8430 1.8777  76.1 21.4 .125 175
2019 08 16 22  04 26 09.404   +16 10 09.84  1.8427 1.8779  76.1 21.4 .132 174
2019 08 16 23  04 26 11.973   +16 10 45.86  1.8424 1.8781  76.2 21.4 .138 173
2019 08 17 00  04 26 14.541   +16 11 21.88  1.8421 1.8783  76.2 21.4 .145 171
2019 08 17 01  04 26 17.106   +16 11 57.91  1.8418 1.8786  76.2 21.4 .152 170
2019 08 17 02  04 26 19.669   +16 12 33.94  1.8415 1.8788  76.2 21.4 .159 169
2019 08 17 03  04 26 22.230   +16 13 09.96  1.8412 1.8790  76.3 21.4 .166 168
2019 08 17 04  04 26 24.789   +16 13 45.99  1.8410 1.8792  76.3 21.4 .174 167
2019 08 17 05  04 26 27.347   +16 14 22.02  1.8407 1.8794  76.3 21.4 .181 166
2019 08 17 06  04 26 29.902   +16 14 58.06  1.8404 1.8797  76.4 21.4 .189 165
2019 08 17 07  04 26 32.455   +16 15 34.09  1.8401 1.8799  76.4 21.4 .196 165
2019 08 17 08  04 26 35.005   +16 16 10.12  1.8398 1.8801  76.4 21.4 .204 164
2019 08 17 09  04 26 37.554   +16 16 46.16  1.8395 1.8803  76.4 21.4 .212 163
2019 08 17 10  04 26 40.101   +16 17 22.20  1.8392 1.8805  76.5 21.4 .220 163
2019 08 17 11  04 26 42.646   +16 17 58.24  1.8389 1.8807  76.5 21.4 .229 162
2019 08 17 12  04 26 45.189   +16 18 34.28  1.8386 1.8810  76.5 21.4 .237 162
2019 08 17 13  04 26 47.729   +16 19 10.32  1.8383 1.8812  76.6 21.4 .245 161
2019 08 17 14  04 26 50.268   +16 19 46.36  1.8380 1.8814  76.6 21.4 .254 161
2019 08 17 15  04 26 52.804   +16 20 22.40  1.8377 1.8816  76.6 21.4 .263 160
2019 08 17 16  04 26 55.339   +16 20 58.45  1.8374 1.8818  76.6 21.4 .271 160
2019 08 17 17  04 26 57.871   +16 21 34.50  1.8371 1.8821  76.7 21.4 .280 159
2019 08 17 18  04 27 00.402   +16 22 10.54  1.8368 1.8823  76.7 21.4 .289 159
2019 08 17 19  04 27 02.930   +16 22 46.59  1.8365 1.8825  76.7 21.4 .299 158
2019 08 17 20  04 27 05.456   +16 23 22.65  1.8362 1.8827  76.7 21.4 .308 158
2019 08 17 21  04 27 07.980   +16 23 58.70  1.8360 1.8829  76.8 21.4 .317 158
2019 08 17 22  04 27 10.502   +16 24 34.75  1.8357 1.8832  76.8 21.4 .327 157
2019 08 17 23  04 27 13.022   +16 25 10.81  1.8354 1.8834  76.8 21.4 .336 157
2019 08 18 00  04 27 15.540   +16 25 46.87  1.8351 1.8836  76.9 21.4 .346 157
2019 08 18 01  04 27 18.056   +16 26 22.93  1.8348 1.8838  76.9 21.4 .356 156
2019 08 18 02  04 27 20.570   +16 26 58.99  1.8345 1.8840  76.9 21.4 .366 156
2019 08 18 03  04 27 23.081   +16 27 35.05  1.8342 1.8842  76.9 21.4 .376 156
2019 08 18 04  04 27 25.591   +16 28 11.11  1.8339 1.8845  77.0 21.4 .386 156
2019 08 18 05  04 27 28.098   +16 28 47.18  1.8336 1.8847  77.0 21.4 .396 155
2019 08 18 06  04 27 30.604   +16 29 23.24  1.8333 1.8849  77.0 21.4 .406 155
2019 08 18 07  04 27 33.107   +16 29 59.31  1.8330 1.8851  77.1 21.4 .417 155
2019 08 18 08  04 27 35.608   +16 30 35.38  1.8327 1.8853  77.1 21.4 .427 155
2019 08 18 09  04 27 38.107   +16 31 11.45  1.8324 1.8855  77.1 21.4 .438 154
2019 08 18 10  04 27 40.604   +16 31 47.53  1.8321 1.8858  77.1 21.4 .449 154
2019 08 18 11  04 27 43.099   +16 32 23.60  1.8318 1.8860  77.2 21.4 .460 154
2019 08 18 12  04 27 45.592   +16 32 59.68  1.8315 1.8862  77.2 21.4 .471 154
2019 08 18 13  04 27 48.083   +16 33 35.76  1.8312 1.8864  77.2 21.4 .482 154
2019 08 18 14  04 27 50.571   +16 34 11.84  1.8309 1.8866  77.3 21.4 .493 153
2019 08 18 15  04 27 53.058   +16 34 47.92  1.8306 1.8869  77.3 21.4 .504 153
2019 08 18 16  04 27 55.542   +16 35 24.00  1.8303 1.8871  77.3 21.4 .516 153
2019 08 18 17  04 27 58.024   +16 36 00.09  1.8300 1.8873  77.3 21.4 .528 153
2019 08 18 18  04 28 00.504   +16 36 36.18  1.8297 1.8875  77.4 21.4 .539 153